Location: *
(51.1248°S, 108.4023°W)
Time: 05:27:07
(UTC+00:00)

Meteor 1-19 Rocket - Pass Details

Date: 15 June 2021
Orbit: 808 x 927 km, 81.2° (Epoch: 31 July)

Event Time Altitude Azimuth Distance (km) Brightness Sun altitude
Rises 13:54:08 0° 346° (NNW) 3,498 7.5 -12.0°
Reaches altitude 10° 13:56:36 10° 344° (NNW) 2,549 6.8 -11.7°
Maximum altitude 14:02:25 79° 257° (WSW) 893 4.2 -10.8°
Drops below altitude 10° 14:08:07 10° 169° (S) 2,498 6.5 -10.0°
Sets 14:10:31 0° 167° (SSE) 3,423 7.2 -9.7°
